Location: Drocourt
(49.0571°N, 1.7669°E)
Time: 15:22:35
(UTC+00:00)

Vanguard 2 Rocket - Pass Details

Date: 20 April 2024
Orbit: 556 x 3304 km, 32.9° (Epoch: 22 May)

Event Time Altitude Azimuth Distance (km) Brightness Sun altitude
Rises 03:15:20 0° 275° (W) 7,292 11.1 -14.6°
Reaches altitude 10° 03:21:42 10° 264° (W) 6,171 10.6 -13.8°
Maximum altitude 03:35:04 25° 220° (SW) 4,411 9.8 -12.0°
Drops below altitude 10° 03:45:26 10° 172° (S) 4,682 10.3 -10.6°
Sets 03:49:26 0° 159° (SSE) 5,270 10.7 -10.0°
